HAIYANG 1C

导读

HAIYANG 1C(海洋一号C)是中国于2018年9月7日在太原卫星发射中心成功发射的海洋业务卫星,是中国民用空间基础设施规划的首颗海洋业务卫星,也是海洋水色系列的第三颗卫星。它可观测海表温度、叶绿素浓度等水色水温要素,监测赤潮、海冰变化,为海洋资源调查、防灾减灾、生态保护提供数据支撑,也服务于气象、农业等多个领域。

Basic Information
目录编号:
43609
目录名称:
HAIYANG 1C
国际标识:
2018-068A
轨道中心:
EARTH
卫星名称:
HAIYANG 1C
卫星全名:
--
卫星状态:
在轨 (已飞行2836 天)
发射日期:
2018-09-07 UTC
国别 :
中国 (CN)
星等 :
--
Orbit Information
数据来源 国际轨道数据 AOE轨道数据
星历时间 2026-06-13T04:23:38+0800
6小时前
查看轨道信息
2026-06-12T00:00:00+0800
1天前
查看轨道信息
半长轴 7155.941km 7155.932km
偏心率 0.0012029 0.0011982
轨道倾角 98.519° 98.520°
近地点辐角 105.606° 109.046°
升交点赤经 236.220° 235.054°
平近点角 254.646° 266.432°
近地点 769.196km 769.22km
远地点 786.412km 786.37km
周期 100.406分钟 100.406分钟
每日圈数 14.341769 14.341795
Detailed Information
使用方式:
暂无
2D Orbit Map
3D Orbit Map
Orbit Altitude Analysis Chart
Orbit Inclination Analysis Chart
Orbit Comprehensive Analysis Chart
View Comprehensive Chart